This is the latest recevied weather packets stored in our database for station/object KO4ZGL-13. If no packets are shown the sender has not sent any weather packets the latest 10 day(s).
| Time | Temp. | Humidity | Pressure | Rain* | Wind** | Luminosity | Snow |
|---|---|---|---|---|---|---|---|
| 1788024187 | 27.78° C | 88% | 1021.5 hPa | 0 mm | - | 417 W/m² | - |
| 1788023883 | 27.78° C | 89% | 1021.7 hPa | 0 mm | - | 344 W/m² | - |
| 1788023578 | 27.78° C | 89% | 1021.6 hPa | 0 mm | - | 662 W/m² | - |
| 1788023274 | 27.78° C | 89% | 1021.6 hPa | 0 mm | - | 349 W/m² | - |
| 1788022968 | 27.78° C | 89% | 1021.6 hPa | 0 mm | - | 404 W/m² | - |
| 1788022665 | 27.78° C | 91% | 1021.7 hPa | 0 mm | - | 328 W/m² | - |
| 1788022359 | 27.22° C | 91% | 1021.8 hPa | 0 mm | - | 339 W/m² | - |
| 1788022059 | 27.22° C | 92% | 1022 hPa | 0 mm | - | 378 W/m² | - |
| 1788021753 | 26.67° C | 93% | 1021.8 hPa | 0 mm | - | 334 W/m² | - |
| 1788021452 | 26.67° C | 93% | 1021.8 hPa | 0 mm | - | 294 W/m² | - |
| 1788021146 | 26.67° C | 94% | 1021.7 hPa | 0 mm | - | 242 W/m² | - |
| 1788020841 | 26.67° C | 95% | 1021.9 hPa | 0 mm | - | 260 W/m² | - |
| 1788020536 | 26.67° C | 96% | 1021.9 hPa | 0 mm | - | 274 W/m² | - |
| 1788020232 | 26.11° C | 96% | 1022.1 hPa | 0 mm | - | 265 W/m² | - |
| 1788019928 | 26.11° C | 97% | 1022 hPa | 0 mm | - | 269 W/m² | - |
| 1788019622 | 26.11° C | 98% | 1022.1 hPa | 0 mm | - | 222 W/m² | - |
| 1788019316 | 25.56° C | 99% | 1022.1 hPa | 0 mm | - | 229 W/m² | - |
| 1788019014 | 25.56° C | 99% | 1022 hPa | 0 mm | - | 216 W/m² | - |
| 1788018709 | 25.56° C | 99% | 1022.1 hPa | 0 mm | - | 287 W/m² | - |
| 1788018409 | 25.56° C | 99% | 1021.9 hPa | 0 mm | - | 293 W/m² | - |
| 1788018103 | 25° C | 99% | 1022 hPa | 0 mm | - | 305 W/m² | - |
| 1788017800 | 25° C | 99% | 1022.3 hPa | 0 mm | - | 272 W/m² | - |
| 1788017496 | 25° C | 99% | 1022 hPa | 0 mm | - | 279 W/m² | - |
| 1788017193 | 25.56° C | 99% | 1021.9 hPa | 0 mm | - | 271 W/m² | - |
| 1788016893 | 25° C | 99% | 1022.2 hPa | 0 mm | - | 277 W/m² | - |
* Rain latest hour (hover to see other rain measurements)
** Current wind speed in m/s (hover to see current wind gust speed)